Temp
-21 -21 -21 -22 -23 -24 -25 -25 -25 -24 -24 -24 -24 -25 -25 -25 -25 -24 -24 -23 -22 -21 -20 -19 -18 -17 -17
-22 -23 -24 -25 -25 -25 -25 -25 -25 -25 -25 -25 -25 -25 -25 -25 -25 -25 -24 -24 -23 -23 -22 -21 -20 -18 -17
-24 -25 -25 -26 -26 -26 -26 -26 -26 -26 -26 -27 -27 -27 -25 -25 -25 -25 -25 -24 -24 -24 -23 -22 -21 -21 -19
-26 -26 -26 -27 -27 -27 -26 -26 -26 -27 -28 -29 -29 -28 -27 -25 -25 -25 -25 -24 -24 -24 -24 -23 -23 -22 -22
-26 -26 -27 -28 -28 -27 -27 -27 -27 -29 -30 -30 -30 -30 -28 -26 -25 -25 -24 -24 -24 -23 -23 -23 -23 -22 -22
-27 -27 -28 -28 -28 -27 -27 -27 -28 -31 -30 -30 -31 -30 -29 -27 -25 -25 -24 -24 -23 -23 -23 -23 -23 -23 -23
-28 -28 -28 -29 -28 -27 -28 -29 -29 -30 -29 -30 -31 -30 -29 -27 -26 -25 -24 -24 -23 -23 -23 -23 -23 -23 -23
-29 -28 -29 -29 -28 -28 -29 -29 -30 -30 -30 -31 -31 -31 -30 -27 -26 -24 -24 -24 -23 -23 -23 -23 -23 -23 -23
-29 -29 -29 -29 -29 -28 -29 -29 -30 -30 -30 -29 -30 -29 -29 -28 -26 -25 -24 -23 -23 -23 -23 -23 -23 -23 -23
-29 -29 -29 -29 -29 -29 -29 -30 -30 -30 -29 -29 -29 -29 -28 -28 -26 -25 -24 -23 -23 -23 -22 -22 -22 -22 -22
-28 -28 -29 -29 -29 -29 -29 -29 -29 -29 -29 -28 -28 -28 -28 -28 -27 -26 -25 -25 -24 -24 -24 -23 -23 -22 -22
-28 -28 -28 -29 -29 -28 -28 -28 -28 -27 -28 -28 -28 -28 -28 -27 -27 -27 -26 -25 -25 -24 -24 -23 -23 -23 -22
-28 -28 -28 -28 -28 -27 -27 -26 -26 -26 -27 -27 -27 -27 -27 -27 -27 -27 -26 -25 -24 -24 -23 -23 -23 -23 -22
-27 -27 -26 -26 -26 -25 -25 -25 -25 -25 -25 -26 -26 -27 -27 -27 -26 -26 -25 -25 -24 -23 -24 -23 -24 -23 -22
-26 -25 -25 -24 -24 -24 -24 -24 -24 -24 -24 -24 -25 -26 -26 -26 -26 -25 -25 -25 -25 -24 -24 -24 -23 -23 -23
-25 -24 -24 -24 -24 -24 -24 -24 -24 -25 -24 -24 -24 -25 -25 -25 -25 -25 -25 -25 -24 -24 -24 -24 -24 -24 -23
-25 -25 -24 -24 -24 -24 -24 -24 -24 -24 -24 -23 -23 -23 -24 -24 -25 -26 -25 -25 -25 -25 -24 -23 -23 -23 -22
Height
5378 5375 5367 5351 5341 5327 5322 5316 5312 5312 5308 5306 5306 5311 5318 5325 5333 5340 5347 5354 5361 5372 5382 5386 5395 5411 5427
5355 5341 5334 5327 5318 5309 5301 5295 5287 5290 5286 5280 5277 5278 5287 5299 5308 5317 5325 5333 5340 5347 5357 5367 5372 5383 5400
5324 5316 5308 5302 5295 5287 5280 5275 5271 5267 5259 5250 5248 5251 5256 5268 5281 5291 5301 5311 5321 5327 5334 5346 5357 5365 5373
5302 5293 5287 5283 5271 5264 5265 5255 5254 5243 5231 5227 5223 5221 5225 5237 5255 5267 5278 5289 5299 5309 5319 5328 5337 5348 5359
5285 5275 5269 5264 5254 5247 5238 5239 5237 5217 5210 5211 5203 5198 5203 5212 5228 5242 5255 5268 5281 5292 5302 5312 5321 5330 5340
5268 5257 5253 5246 5239 5230 5223 5217 5217 5202 5192 5194 5182 5186 5186 5193 5207 5220 5235 5248 5262 5275 5286 5296 5307 5319 5327
5253 5244 5237 5230 5223 5218 5211 5202 5196 5190 5182 5181 5175 5175 5175 5182 5189 5202 5216 5231 5245 5258 5270 5282 5293 5304 5315
5240 5233 5222 5216 5210 5205 5198 5193 5187 5182 5178 5176 5174 5172 5171 5173 5179 5190 5203 5215 5228 5240 5253 5266 5279 5291 5302
5230 5221 5211 5204 5198 5195 5190 5184 5182 5181 5178 5175 5173 5170 5168 5169 5172 5179 5189 5200 5212 5223 5235 5248 5261 5275 5288
5223 5213 5204 5199 5193 5188 5185 5181 5181 5180 5177 5174 5172 5170 5170 5169 5172 5176 5183 5191 5200 5210 5220 5231 5245 5260 5277
5214 5208 5202 5196 5191 5187 5184 5181 5179 5177 5174 5173 5171 5171 5170 5171 5173 5177 5182 5189 5197 5205 5214 5226 5240 5254 5268
5212 5206 5200 5195 5191 5187 5182 5179 5176 5174 5173 5170 5169 5170 5171 5174 5176 5179 5183 5190 5197 5205 5215 5226 5238 5250 5260
5210 5204 5198 5193 5188 5184 5180 5176 5174 5172 5170 5169 5168 5169 5171 5173 5176 5180 5185 5192 5199 5208 5217 5228 5238 5247 5257
5206 5199 5193 5189 5185 5182 5178 5176 5173 5171 5170 5168 5168 5168 5170 5172 5177 5182 5187 5194 5202 5210 5219 5226 5235 5244 5254
5200 5196 5192 5189 5186 5182 5179 5177 5174 5171 5168 5167 5168 5169 5171 5174 5178 5184 5190 5197 5204 5211 5220 5227 5235 5244 5253
5201 5197 5193 5190 5187 5183 5180 5178 5175 5172 5169 5167 5168 5170 5174 5177 5181 5186 5192 5199 5205 5213 5221 5228 5236 5245 5252
5203 5199 5196 5193 5189 5186 5184 5182 5180 5176 5173 5172 5172 5174 5176 5180 5184 5189 5195 5200 5207 5214 5221 5228 5236 5244 5252
Wind_Speed
89 82 79 78 74 72 69 68 68 65 66 69 72 78 75 72 71 71 69 70 80 93 90 98 105 98 87
85 82 74 68 66 66 67 68 67 64 66 70 71 71 79 75 72 70 70 68 69 74 88 97 93 104 93
83 75 69 64 62 63 65 62 63 65 68 70 70 71 72 79 75 72 71 71 68 67 70 78 85 85 99
76 72 67 60 60 59 56 58 58 61 63 60 60 60 68 76 77 74 72 71 68 64 61 57 60 64 60
70 66 61 56 56 58 62 54 51 56 56 50 51 50 54 65 78 76 74 71 67 63 59 55 52 51 50
63 62 57 56 57 59 55 52 42 41 46 40 44 38 42 55 71 76 75 73 70 66 62 59 53 49 48
62 58 58 57 58 51 47 44 36 29 33 25 27 25 29 41 55 75 73 73 71 69 67 63 57 52 48
55 52 56 56 51 47 40 32 24 20 15 9 14 15 23 31 42 58 70 69 70 71 69 67 64 56 53
49 51 52 51 48 38 28 20 5 6 14 13 13 14 15 16 21 32 46 55 58 60 61 61 59 56 53
44 44 44 37 31 26 17 9 4 5 14 7 5 10 8 3 6 13 21 27 31 35 40 45 48 49 46
31 25 22 21 22 22 19 13 7 8 13 10 6 5 2 5 5 5 12 13 18 23 30 36 39 40 41
20 22 23 24 24 22 21 19 16 12 7 9 6 9 5 9 6 6 13 18 22 25 29 31 33 36 37
23 26 28 27 27 26 22 19 15 7 6 6 5 6 12 11 16 14 17 23 26 26 26 27 29 32 33
30 28 23 20 19 15 14 11 8 7 4 2 3 6 8 12 12 16 20 23 24 24 22 24 30 31 35
23 17 15 14 13 13 13 13 13 12 10 6 5 3 6 7 10 15 20 23 24 24 23 22 28 29 35
14 13 13 13 14 13 12 13 14 14 10 6 4 10 8 7 11 17 21 23 24 28 26 26 28 28 31
16 16 15 14 14 15 14 14 17 20 18 10 10 9 10 9 12 16 19 19 21 22 22 30 35 32 33
Wind_Direction
303 300 296 293 290 289 288 287 284 281 279 275 269 257 251 250 250 249 248 247 244 239 239 246 248 237 237
304 303 301 296 293 290 286 287 282 284 285 280 272 262 248 246 245 245 244 243 245 246 241 242 247 248 232
306 304 303 300 295 291 290 287 285 287 286 281 276 265 253 240 240 240 241 241 242 243 246 244 247 250 247
305 303 302 302 299 297 294 293 291 290 286 286 282 270 252 240 235 237 237 237 237 237 239 240 243 245 247
305 303 303 304 302 300 302 300 297 291 287 286 281 273 256 243 232 233 234 233 233 234 235 237 236 241 245
305 304 306 307 304 305 307 304 301 291 287 286 278 276 258 244 232 230 231 231 230 232 234 235 236 236 241
308 307 306 307 306 308 310 309 306 296 293 296 282 277 259 248 238 230 231 231 231 232 231 231 234 237 241
309 306 306 306 308 312 313 312 305 306 329 343 308 284 261 251 243 234 231 233 234 234 234 234 236 238 245
310 308 306 309 312 317 317 321 300 350 335 340 301 301 281 257 240 234 235 237 238 238 236 234 233 230 226
308 306 309 313 318 328 340 338 302 258 315 333 325 343 331 274 226 220 222 222 224 223 222 219 215 212 214
318 321 329 336 342 342 341 344 318 269 275 285 242 263 289 189 285 171 189 181 188 194 197 196 197 201 208
333 334 336 333 328 330 331 333 337 336 305 314 279 213 200 177 199 226 167 164 166 170 170 179 189 199 202
327 323 319 313 310 317 321 337 343 357 341 298 276 243 224 227 202 186 163 156 159 161 166 182 196 193 190
324 319 316 323 332 344 345 344 357 353 339 313 253 238 213 202 190 174 161 157 157 159 174 178 174 176 177
332 339 351 9 12 2 353 339 333 330 322 308 203 192 157 173 174 164 163 162 167 166 174 175 168 177 177
0 19 13 360 351 358 24 43 39 22 11 8 159 176 172 192 153 161 163 168 173 171 183 180 178 178 189
18 19 13 13 25 46 55 56 53 54 51 69 109 116 140 148 144 153 157 163 172 181 183 182 177 187 186